TimeHST,TemperatureF,Dew PointF,Humidity,Sea Level PressureIn,VisibilityMPH,Wind Direction,Wind SpeedMPH,Gust SpeedMPH,PrecipitationIn,Events,Conditions,WindDirDegrees,DateUTC
12:54 AM,75.0,69.1,82,30.00,10.0,NNE,12.7,-,N/A,,Overcast,30,2013-10-05 10:54:00
1:54 AM,73.9,69.1,85,30.01,10.0,ENE,8.1,-,N/A,,Mostly Cloudy,60,2013-10-05 11:54:00
2:54 AM,73.9,69.1,85,30.00,10.0,NNE,5.8,-,N/A,,Overcast,30,2013-10-05 12:54:00
3:54 AM,75.0,66.0,73,29.99,10.0,Variable,3.5,-,N/A,,Overcast,0,2013-10-05 13:54:00
4:54 AM,75.0,64.9,71,29.99,10.0,North,8.1,-,N/A,,Overcast,10,2013-10-05 14:54:00
5:54 AM,75.0,66.0,73,30.00,10.0,NNE,8.1,-,N/A,,Overcast,20,2013-10-05 15:54:00
6:54 AM,75.0,70.0,84,30.01,10.0,NNE,9.2,-,N/A,,Mostly Cloudy,20,2013-10-05 16:54:00
7:54 AM,75.9,72.0,87,30.02,10.0,NNE,11.5,20.7,N/A,,Mostly Cloudy,30,2013-10-05 17:54:00
8:54 AM,80.1,68.0,67,30.02,10.0,NE,15.0,21.9,N/A,,Partly Cloudy,50,2013-10-05 18:54:00
9:54 AM,80.1,70.0,71,30.03,10.0,NE,18.4,28.8,N/A,,Partly Cloudy,40,2013-10-05 19:54:00
10:54 AM,78.1,72.0,81,30.03,10.0,NNE,16.1,24.2,N/A,,Scattered Clouds,30,2013-10-05 20:54:00
11:54 AM,81.0,68.0,65,30.00,10.0,NE,20.7,32.2,N/A,,Mostly Cloudy,50,2013-10-05 21:54:00
12:54 PM,84.0,66.9,56,29.97,10.0,NE,18.4,31.1,N/A,,Clear,50,2013-10-05 22:54:00
1:54 PM,82.9,68.0,60,29.95,10.0,NE,17.3,29.9,N/A,,Scattered Clouds,40,2013-10-05 23:54:00
2:54 PM,82.9,66.0,56,29.93,10.0,NE,16.1,27.6,N/A,,Partly Cloudy,40,2013-10-06 00:54:00
3:54 PM,82.0,68.0,62,29.94,10.0,NNE,15.0,24.2,N/A,,Partly Cloudy,30,2013-10-06 01:54:00
4:54 PM,79.0,68.0,69,29.95,10.0,NE,15.0,26.5,N/A,,Partly Cloudy,50,2013-10-06 02:54:00
5:54 PM,75.9,66.9,74,29.96,10.0,NE,17.3,25.3,N/A,,Partly Cloudy,50,2013-10-06 03:54:00
6:54 PM,75.0,68.0,79,29.98,10.0,NE,16.1,23.0,N/A,,Scattered Clouds,40,2013-10-06 04:54:00
7:54 PM,75.0,69.1,82,30.00,10.0,NE,11.5,19.6,N/A,,Scattered Clouds,50,2013-10-06 05:54:00
8:54 PM,75.9,66.9,74,30.01,10.0,NE,11.5,17.3,N/A,,Overcast,40,2013-10-06 06:54:00
9:54 PM,75.9,66.9,74,30.03,10.0,NE,9.2,-,N/A,,Mostly Cloudy,40,2013-10-06 07:54:00
10:54 PM,75.9,66.0,71,30.02,10.0,NNE,6.9,-,N/A,,Mostly Cloudy,20,2013-10-06 08:54:00
11:54 PM,75.0,69.1,82,30.01,10.0,NNE,8.1,-,N/A,,Partly Cloudy,30,2013-10-06 09:54:00